IU3OVK-13 Weather Reports


Display with metric or nautical units.
time (UTC)temp
F
wind
direction
speed
MPH
gust
MPH
rain 1hr
in
rain 24hr
in
rain mn
in
humidity
%
barometer
mb
20260505062048 70 0.0 0.0 0.00 0.00 0.00 99 1007.2
20260505061028 67 0.0 0.0 0.00 0.00 0.00 99 1006.7
20260505060008 61 0.0 0.0 0.00 0.00 0.00 99 1006.7
20260505054947 58 0.0 0.0 0.00 0.00 0.00 99 1007.1
20260505053927 58 0.0 0.0 0.00 0.00 0.00 99 1007.1
20260505052907 58 0.0 0.0 0.00 0.00 0.00 99 1007.2
20260504223513 60 0.0 0.0 0.00 0.00 0.00 99 1009.5
20260504220412 61 0.0 0.0 0.00 0.00 0.00 99 1009.8
20260504214332 62 0.0 0.0 0.00 0.00 0.00 99 1009.7
20260504213312 61 0.0 0.0 0.00 0.00 0.00 99 1010.1
20260504212251 60 0.0 0.0 0.00 0.00 0.00 99 1010.4
20260504211231 62 0.0 0.0 0.00 0.00 0.00 99 1010.1
20260504210211 62 0.0 0.0 0.00 0.00 0.00 99 1010.5
20260504205151 63 0.0 0.0 0.00 0.00 0.00 99 1010.2
20260504204131 63 0.0 0.0 0.00 0.00 0.00 99 1010.2
20260504203111 64 0.0 0.0 0.00 0.00 0.00 99 1010.0
20260504202050 63 0.0 0.0 0.00 0.00 0.00 99 1010.4
20260504201030 64 0.0 0.0 0.00 0.00 0.00 99 1010.0
20260504200010 64 0.0 0.0 0.00 0.00 0.00 99 1010.3
20260504194950 64 0.0 0.0 0.00 0.00 0.00 99 1010.0
20260504192910 65 0.0 0.0 0.00 0.00 0.00 99 1010.3
20260504191849 65 0.0 0.0 0.00 0.00 0.00 99 1009.9
20260504185809 66 0.0 0.0 0.00 0.00 0.00 99 1009.4
20260504183729 66 0.0 0.0 0.00 0.00 0.00 99 1009.7
20260504182710 67 0.0 0.0 0.00 0.00 0.00 99 1009.5
20260504181648 67 0.0 0.0 0.00 0.00 0.00 99 1009.1
20260504180739 67 0.0 0.0 0.00 0.00 0.00 99 1009.0
20260504180628 67 0.0 0.0 0.00 0.00 0.00 99 1009.0
20260504175608 68 0.0 0.0 0.00 0.00 0.00 99 1008.4
20260504174548 68 0.0 0.0 0.00 0.00 0.00 99 1008.5
20260504173528 68 0.0 0.0 0.00 0.00 0.00 99 1008.9
20260504172508 69 0.0 0.0 0.00 0.00 0.00 99 1009.1
20260504171447 70 0.0 0.0 0.00 0.00 0.00 99 1008.9
20260504170427 71 0.0 0.0 0.00 0.00 0.00 99 1008.8
20260504151046 75 0.0 0.0 0.00 0.00 0.00 86 1008.4
20260504140845 75 0.0 0.0 0.00 0.00 0.00 81 1008.0
20260504130643 76 0.0 0.0 0.00 0.00 0.00 83 1009.3
20260504110242 80 0.0 0.0 0.00 0.00 0.00 83 1010.3
20260504081719 93 0.0 0.0 0.00 0.00 0.00 67 1003.4